DateTimeUTC,F1_A11,F1_S11,BsB_S11,BsG_S11,BsR_S11,BbsB_S11,BbsG_S11,BbsR_S11,BaB_A11,BaG_A11,BaR_A11,Tu_S11,T_S11,Uu_S11,U_S11,P_S11,T1_A11
2021-07-22T16:00:00Z,00000200,20000000,,,,,,,-000.12,-000.44,-000.01,20.2,26.7,06.5,04.4,0668.0,31.2
2021-07-22T16:01:00Z,00000200,20000000,,,,,,,0000.02,0000.18,0000.03,20.2,26.7,06.5,04.4,0668.0,31.2
2021-07-22T16:02:00Z,00000200,20000000,,,,,,,-000.13,0000.08,-000.14,20.2,26.7,06.5,04.4,0668.0,31.2
2021-07-22T16:03:00Z,00000200,60000000,,,,,,,0000.67,0000.54,0000.36,20.2,26.7,06.5,04.4,0668.0,31.2
2021-07-22T16:04:00Z,00000200,40000000,0003.17,0001.99,0001.52,0000.84,0000.47,0000.17,0000.61,0000.62,0000.58,20.2,26.6,06.5,04.4,0668.9,31.2
2021-07-22T16:05:00Z,00000200,00000000,0002.58,0002.52,0001.65,-000.22,0000.37,0000.32,0000.96,0000.60,0000.72,20.3,26.5,06.7,04.6,0669.0,31.2
2021-07-22T16:06:00Z,00000200,00000000,0003.27,0001.95,0001.34,0001.13,0000.50,0000.27,0000.93,0001.02,0000.56,20.3,26.5,06.7,04.6,0669.0,31.2
2021-07-22T16:07:00Z,00000200,00000000,0003.18,0002.29,0001.51,-000.07,0000.51,0000.19,0000.64,0000.34,0000.50,20.3,26.5,06.9,04.8,0669.0,31.2
2021-07-22T16:08:00Z,00000200,00000000,0003.05,0002.31,0001.23,0000.35,0000.35,0000.30,0000.77,0000.79,0000.48,20.3,26.5,06.7,04.6,0669.0,31.2
2021-07-22T16:09:00Z,00000200,00000000,0003.35,0002.39,0001.36,0000.57,0000.38,0000.51,0000.32,0000.34,0000.31,20.3,26.5,06.7,04.6,0669.0,31.2
2021-07-22T16:10:00Z,00000200,00000000,0003.54,0002.58,0001.52,0000.71,0000.41,0000.36,0000.58,0000.60,0000.30,20.3,26.5,06.5,04.5,0669.0,31.2
2021-07-22T16:11:00Z,00000200,00000000,0002.76,0002.53,0001.61,0000.60,0000.33,0000.28,0000.91,0000.95,0000.96,20.3,26.5,06.6,04.5,0669.0,31.2
2021-07-22T16:12:00Z,00000200,00000000,0003.07,0002.63,0001.71,0000.49,0000.45,0000.61,0000.93,0000.93,0000.21,20.3,26.5,06.5,04.5,0669.0,31.2
2021-07-22T16:13:00Z,00000200,00000000,0003.48,0002.64,0001.45,0000.87,0000.68,0000.19,0000.73,0000.35,0000.58,20.3,26.5,06.7,04.6,0669.0,31.2
2021-07-22T16:14:00Z,00000200,00000000,0003.50,0002.23,0001.69,0001.12,0000.29,0000.25,0000.89,0000.84,0000.79,20.3,26.5,06.7,04.6,0669.0,31.2
2021-07-22T16:15:00Z,00000200,00000000,0003.34,0002.22,0001.24,0001.13,0000.62,0000.37,0000.52,0000.47,0000.52,20.3,26.5,06.7,04.6,0669.0,31.2
2021-07-22T16:16:00Z,00000200,00000000,0003.82,0002.37,0001.41,0000.38,0000.35,0000.12,0000.67,0000.49,0000.44,20.3,26.5,06.6,04.6,0669.0,31.2
2021-07-22T16:17:00Z,00000200,00000000,0003.84,0002.47,0001.48,0000.82,0000.40,0000.52,0000.65,0000.85,0000.05,20.3,26.5,06.6,04.6,0669.0,31.2
2021-07-22T16:18:00Z,00000200,00000000,0002.81,0001.99,0001.30,0000.05,0000.10,0000.35,0000.84,0000.71,0000.99,20.3,26.5,06.5,04.5,0669.0,31.2
2021-07-22T16:19:00Z,00000200,00000000,0003.37,0002.16,0001.41,0000.57,0000.54,0000.32,0001.28,0001.15,0000.81,20.3,26.5,06.7,04.6,0669.0,31.2
2021-07-22T16:20:00Z,00000200,00000000,0002.97,0002.54,0001.88,0000.98,0000.37,0000.49,0000.56,0000.51,0000.46,20.3,26.5,06.8,04.7,0668.9,31.2
2021-07-22T16:21:00Z,00000200,00000000,0003.31,0002.02,0001.57,0000.27,0000.56,0000.48,0000.28,0000.41,0000.31,20.3,26.5,06.7,04.6,0668.9,31.2
2021-07-22T16:22:00Z,00000200,00000000,0003.45,0002.58,0001.49,0000.19,0000.15,0000.37,0000.16,0000.02,0000.31,20.3,26.5,06.6,04.6,0668.9,31.2
2021-07-22T16:23:00Z,00000200,00000000,0003.63,0002.43,0001.71,0000.53,0000.40,0000.26,0000.89,0000.68,-000.12,20.3,26.5,06.3,04.4,0668.9,31.2
2021-07-22T16:24:00Z,00000200,00000000,0003.75,0002.46,0001.74,0000.30,0000.45,0000.63,0000.55,0000.59,0000.84,20.3,26.5,06.2,04.3,0668.9,31.2
2021-07-22T16:25:00Z,00000200,00000000,0003.17,0002.63,0001.45,0000.22,0000.36,0000.36,0000.88,0000.68,0000.41,20.3,26.5,06.3,04.3,0668.9,31.2
2021-07-22T16:26:00Z,00000200,00000000,0003.65,0002.39,0001.73,0000.50,0000.26,0000.47,0000.27,0000.20,0000.29,20.3,26.5,06.1,04.2,0669.0,31.2
2021-07-22T16:27:00Z,00000200,00000000,0003.39,0002.71,0001.41,0000.20,0000.18,0000.61,0001.29,0001.26,0000.97,20.3,26.5,06.1,04.2,0668.9,31.2
2021-07-22T16:28:00Z,00000200,00000000,0003.72,0002.49,0001.90,0000.93,0000.36,0000.76,0000.90,0000.73,0000.60,20.4,26.5,06.3,04.4,0668.9,31.2
2021-07-22T16:29:00Z,00000200,00000000,0003.89,0002.33,0001.21,0000.77,0000.22,0000.28,0000.01,0000.26,-000.06,20.4,26.5,06.3,04.4,0668.9,31.2
2021-07-22T16:30:00Z,00000200,00000000,0003.92,0002.26,0001.21,0000.45,0000.29,0000.07,0001.13,0000.87,0000.66,20.4,26.5,06.1,04.2,0668.9,31.2
2021-07-22T16:31:00Z,00000200,00000000,0003.10,0002.33,0001.46,0000.36,0000.65,0000.44,0000.67,0000.79,0000.85,20.4,26.5,06.2,04.3,0668.9,31.2
2021-07-22T16:32:00Z,00000200,00000000,0003.10,0002.18,0001.39,0000.75,0000.36,0000.20,0001.10,0001.01,0000.36,20.4,26.5,06.3,04.4,0668.9,31.2
2021-07-22T16:33:00Z,00000200,00000000,0003.67,0002.26,0001.21,0000.64,0000.34,0000.28,0000.66,0000.81,0000.51,20.4,26.5,06.4,04.4,0668.9,31.2
2021-07-22T16:34:00Z,00000200,00000000,0003.78,0002.51,0001.34,0000.45,0000.31,0000.40,0000.51,0000.18,0000.78,20.4,26.5,06.5,04.5,0668.9,31.2
2021-07-22T16:35:00Z,00000200,00000000,0003.26,0002.66,0001.50,0000.05,0000.41,0000.21,0001.22,0001.39,0000.61,20.4,26.5,06.5,04.5,0668.9,31.2
2021-07-22T16:36:00Z,00000200,00000000,0003.47,0002.23,0001.26,0000.44,0000.27,0000.11,0000.44,-000.13,0000.35,20.4,26.5,06.5,04.5,0668.9,31.2
2021-07-22T16:37:00Z,00000200,00000000,0002.77,0002.33,0001.65,0000.28,0000.24,0000.45,0000.72,0000.92,0000.28,20.4,26.5,06.4,04.4,0668.9,31.2
2021-07-22T16:38:00Z,00000200,00000000,0003.21,0002.44,0001.60,0000.68,0000.63,0000.36,0000.78,0000.39,0000.51,20.4,26.5,06.4,04.4,0668.9,31.2
2021-07-22T16:39:00Z,00000200,00000000,0003.14,0002.52,0001.32,0001.03,0000.35,0000.28,0001.01,0001.08,0001.03,20.4,26.5,06.6,04.5,0668.9,31.2
2021-07-22T16:40:00Z,00000200,00000000,0003.21,0002.37,0001.28,0000.32,0000.20,0000.59,0001.16,0001.37,0000.85,20.4,26.5,06.8,04.7,0668.8,31.2
2021-07-22T16:41:00Z,00000200,00000000,0003.51,0002.22,0001.72,0000.64,0000.15,0000.23,0000.72,0000.33,0000.20,20.4,26.5,06.9,04.8,0668.8,31.2
2021-07-22T16:42:00Z,00000200,00000000,0003.79,0002.40,0001.56,0000.61,0000.27,0000.32,0000.82,0000.73,0000.83,20.4,26.5,06.9,04.7,0668.8,31.2
2021-07-22T16:43:00Z,00000200,00000000,0003.03,0002.49,0001.40,0000.52,0000.25,0000.45,0000.70,0000.98,0000.75,20.4,26.5,06.9,04.8,0668.8,31.2
2021-07-22T16:44:00Z,00000200,00000000,0002.92,0002.62,0001.02,0000.89,0000.55,0000.05,0000.70,0000.55,0000.01,20.4,26.5,07.0,04.8,0668.8,31.2
2021-07-22T16:45:00Z,00000200,00000000,0002.66,0002.26,0001.58,0000.70,0000.36,0000.61,-000.01,0000.03,0000.37,20.4,26.5,06.7,04.6,0668.8,31.2
2021-07-22T16:46:00Z,00000200,00000000,0003.31,0002.46,0001.21,-000.13,0000.46,0000.18,0001.00,0000.89,0000.58,20.4,26.5,06.8,04.7,0668.8,31.2
2021-07-22T16:47:00Z,00000200,00000000,0003.03,0002.21,0001.62,0001.20,0000.24,-000.07,0000.70,0000.76,0000.80,20.4,26.5,06.8,04.7,0668.8,31.2
2021-07-22T16:48:00Z,00000200,00000000,0003.50,0002.26,0001.30,0000.10,0000.11,0000.08,0001.04,0000.57,0000.16,20.4,26.5,06.7,04.6,0668.8,31.2
2021-07-22T16:49:00Z,00000200,00000000,0002.86,0001.95,0001.31,0000.28,0000.11,0000.47,0001.12,0001.10,0001.07,20.4,26.5,07.0,04.8,0668.8,31.2
2021-07-22T16:50:00Z,00000200,00000000,0002.94,0002.28,0001.50,0000.84,0000.27,0000.02,0000.32,0000.16,-000.07,20.4,26.5,07.0,04.8,0668.8,31.2
2021-07-22T16:51:00Z,00000200,00000000,0002.31,0002.26,0001.39,0000.45,0000.36,0000.33,0000.65,0001.10,0000.70,20.4,26.5,06.8,04.7,0668.8,31.2
2021-07-22T16:52:00Z,00000200,00000000,0002.82,0002.28,0001.80,0000.94,0000.21,0000.40,0000.31,-000.19,-000.01,20.4,26.5,06.7,04.6,0668.8,31.2
2021-07-22T16:53:00Z,00000200,00000000,0003.36,0002.72,0001.24,0000.29,0000.32,0000.39,0001.16,0001.11,0000.74,20.4,26.5,06.7,04.6,0668.8,31.2
2021-07-22T16:54:00Z,00000200,00000000,0004.05,0002.02,0001.51,0000.42,0000.37,0000.04,0000.25,0000.41,0000.72,20.4,26.5,06.9,04.8,0668.7,31.2
2021-07-22T16:55:00Z,00000200,00000000,0002.88,0002.06,0001.51,0000.43,0000.31,0000.35,0000.98,0000.87,0000.21,20.4,26.5,06.8,04.7,0668.8,31.2
2021-07-22T16:56:00Z,00000200,00000000,0002.80,0002.54,0001.23,0000.71,0000.23,0000.58,0000.86,0000.80,0000.63,20.4,26.5,06.8,04.7,0668.8,31.2
2021-07-22T16:57:00Z,00000200,40000000,,,,,,,-000.29,-000.20,0000.06,20.4,26.5,06.4,04.4,0668.7,31.2
2021-07-22T16:58:00Z,00000200,60000000,,,,,,,0000.32,0000.03,0000.09,20.2,26.6,06.6,04.4,0667.8,31.2
2021-07-22T16:59:00Z,00000200,20000000,,,,,,,-000.33,0000.19,0000.21,20.2,26.7,06.6,04.4,0667.8,31.2
